Orbital Elements at Epoch 2459200.5 (2020-Dec-17.0) TDB
Reference: JPL 25 (heliocentric ecliptic J2000)
Element | Value | Uncertainty (1-sigma) | Units |
e | .1827984265530475 | 3.641e-08 | |
a | 2.662697239644114 | 1.1221e-08 | au |
q | 2.175960373850027 | 9.5671e-08 | au |
i | 12.26436731848064 | 4.0329e-06 | deg |
node | 171.6274718575929 | 1.8637e-05 | deg |
peri | 193.8458660002806 | 2.1173e-05 | deg |
M | 205.2996955306391 | 1.1402e-05 | deg |
tp | 2459882.477076193551 (2022-Oct-29.97707619) | 5.1975e-05 | TDB |
period | 1587.015282690042 4.35 | 1.0032e-05 2.747e-08 | d yr |
n | .2268409157281639 | 1.4339e-09 | deg/d |
Q | 3.149434105438202 | 1.3272e-08 | au |
|
| | Orbit Determination Parameters
Additional Information
|